Regional Weather Roundup
Issued by NWS

Home | Current Version | Previous Version | Graphics & Text | Print | Product List | Glossary On
Versions: 1 2 3 4 5 6 7 8 9 10 11 12 13 14 15 16 17 18 19 20 21 22 23 24 25 26 27 28 29 30 31 32 33 34 35 36 37 38 39 40 41 42 43 44 45 46 47 48 49 50
000
ASUS43 KBIS 281010
RWRND

NORTH DAKOTA REGIONAL WEATHER ROUNDUP
NATIONAL WEATHER SERVICE BISMARCK ND
500 AM CDT TUE JUL 28 2015

NOTE: "FAIR" INDICATES FEW OR NO CLOUDS BELOW 12,000 FEET WITH NO
SIGNIFICANT WEATHER AND/OR OBSTRUCTIONS TO VISIBILITY.


NDZ001>003-009>011-017-281100-
NORTHWEST NORTH DAKOTA

CITY           SKY/WX    TMP DP  RH WIND       PRES   REMARKS
WILLISTON      CLOUDY    60  56  86 SW20G29   29.58S
MINOT          MOCLDY    67  58  72 SW15G22   29.56R
MINOT AFB      CLOUDY    67  62  83 SW6G16    29.55R
$$

NDZ018>021-031>035-040>046-281100-
SOUTHWEST NORTH DAKOTA

CITY           SKY/WX    TMP DP  RH WIND       PRES   REMARKS
BISMARCK       MOCLDY    64  58  80 W12       29.67R
DICKINSON      CLOUDY    58  53  84 W25G33    29.70R
GARRISON         N/A     62  58  86 W14G24    29.60R
HETTINGER ARPT CLOUDY    56  50  80 W30G44    29.79R
$$

NDZ004>008-012>016-024-026-027-054-281100-
NORTHEAST NORTH DAKOTA

CITY           SKY/WX    TMP DP  RH WIND       PRES   REMARKS
GRAND FORKS    CLOUDY    74  71  91 SE17      29.58F
GRND FRKS AFB  CLOUDY    75  72  90 S15       29.57F
DEVILS LAKE    CLOUDY    73  64  73 SW10      29.54F
$$

NDZ022-023-025-028>030-036>039-047>053-281100-
SOUTHEAST NORTH DAKOTA

CITY           SKY/WX    TMP DP  RH WIND       PRES   REMARKS
FARGO          RAIN      73  70  90 SE15      29.65F FOG
JAMESTOWN      CLOUDY    69  64  84 SW12      29.62R
$$



USA.gov is the U.S. government's official web portal to all federal, state and local government web resources and services.